Weather History for Bangor, ME

Change the Weather History Date:

Saturday, July 6, 2013

  Actual Average Record
Temperature  
Mean Temperature 77 °F 68 °F  
Max Temperature 86 °F 79 °F 95 °F (1935)
Min Temperature 67 °F 57 °F 42 °F (1940)
Degree Days  
Heating Degree Days 0 1  
Month to date heating degree days 3 6  
Since 1 June heating degree days 103 113  
Since 1 July heating degree days 3 6  
Cooling Degree Days 12 4  
Month to date cooling degree days 47 22  
Year to date cooling degree days 112 80  
Since 1 June cooling degree days 104 74  
Growing Degree Days 27 (Base 50)    
Moisture  
Dew Point 67 °F    
Average Humidity 71    
Maximum Humidity 90    
Minimum Humidity 51    
Precipitation  
Precipitation 0.00 in 0.10 in 1.42 in (1983)
Month to date precipitation 0.56 0.62  
Year to date precipitation 17.31 20.43  
Snow  
Snow 0.00 in 0.00 in 0.00 in (2002)
Month to date snowfall 0.0 0.0  
Since 1 June snowfall 0.0 0.0  
Since 1 July snowfall 0.0 0.0  
Snow Depth 0.00 in    
Sea Level Pressure  
Sea Level Pressure 29.94 in    
Wind  
Wind Speed 6 mph (West)    
Max Wind Speed 16 mph    
Max Gust Speed 22 mph    
Visibility 10 miles    
Events      
T = Trace of Precipitation, MM = Missing Value Source: NWS Daily Summary

Daily Weather History Graph

Daily Weather History Graph

Search for Another Location

Airport:

Trip Planner

Search our weather history database for the weather conditions in past years. The results will help you decide how hot, cold, wet, or windy it might be!

Date:

Astronomy

Jul. 06, 2013 Rise Set
Actual Time 4:56 AM EDT 8:23 PM EDT
Civil Twilight 4:19 AM EDT 8:59 PM EDT
Nautical Twilight 3:31 AM EDT 9:47 PM EDT
Astronomical Twilight 2:30 AM EDT 10:48 PM EDT
Moon 3:41 AM EDT (7/6) 6:59 PM EDT (7/6)
Length of Visible Light 16h 39m
Length of Day
15h 26m
Waning Crescent, 2% of the Moon is Illuminated
Jul 6
Waning Crescent
Jul 8
New
Jul 15
First Quarter
Jul 22
Full
Jul 29
Last Quarter

Hourly Weather History & Observations

Time (EDT) Temp. Heat Index Dew Point Humidity Pressure Visibility Wind Dir Wind Speed Gust Speed Precip Events Conditions
12:53 AM 73.9 °F - 70.0 °F 87% 29.99 in 10.0 mi WSW 5.8 mph - N/A   Mostly Cloudy
1:53 AM 75.0 °F - 70.0 °F 84% 29.99 in 10.0 mi WSW 5.8 mph - N/A   Mostly Cloudy
2:53 AM 73.9 °F - 70.0 °F 87% 29.99 in 10.0 mi West 4.6 mph - N/A   Mostly Cloudy
3:53 AM 73.0 °F - 69.1 °F 87% 29.99 in 10.0 mi SW 4.6 mph - N/A   Mostly Cloudy
4:53 AM 71.1 °F - 68.0 °F 90% 29.98 in 10.0 mi Calm Calm - N/A   Mostly Cloudy
5:53 AM 72.0 °F - 68.0 °F 87% 29.99 in 10.0 mi SW 3.5 mph - N/A   Mostly Cloudy
6:53 AM 73.9 °F - 69.1 °F 85% 29.98 in 10.0 mi SW 4.6 mph - N/A   Mostly Cloudy
7:53 AM 78.1 °F - 70.0 °F 76% 29.98 in 10.0 mi WSW 6.9 mph - N/A   Mostly Cloudy
8:53 AM 80.1 °F 82.9 °F 69.1 °F 69% 29.98 in 10.0 mi West 5.8 mph - N/A   Mostly Cloudy
9:53 AM 82.9 °F 86.5 °F 69.1 °F 63% 29.97 in 10.0 mi West 9.2 mph - N/A   Overcast
10:53 AM 82.0 °F 85.5 °F 69.1 °F 65% 29.96 in 10.0 mi West 5.8 mph - N/A   Overcast
11:53 AM 82.9 °F 86.5 °F 69.1 °F 63% 29.96 in 10.0 mi WSW 10.4 mph - N/A   Overcast
12:53 PM 82.9 °F 85.8 °F 68.0 °F 60% 29.95 in 10.0 mi NW 10.4 mph - N/A   Overcast
1:53 PM 82.0 °F 84.9 °F 68.0 °F 62% 29.94 in 10.0 mi NW 8.1 mph - N/A   Overcast
2:53 PM 84.0 °F 86.5 °F 66.9 °F 56% 29.93 in 10.0 mi WNW 10.4 mph - N/A   Mostly Cloudy
3:53 PM 84.9 °F 86.1 °F 64.0 °F 49% 29.91 in 10.0 mi West 10.4 mph 21.9 mph N/A   Mostly Cloudy
4:53 PM 84.9 °F 86.6 °F 64.9 °F 51% 29.90 in 10.0 mi West 9.2 mph - N/A   Mostly Cloudy
5:53 PM 84.9 °F 86.6 °F 64.9 °F 51% 29.89 in 10.0 mi West 5.8 mph - N/A   Overcast
6:53 PM 82.9 °F 84.6 °F 64.9 °F 54% 29.88 in 10.0 mi West 5.8 mph - N/A   Overcast
7:53 PM 80.1 °F 82.3 °F 66.9 °F 64% 29.87 in 10.0 mi WSW 4.6 mph - N/A   Overcast
8:53 PM 78.1 °F - 64.9 °F 64% 29.89 in 10.0 mi Calm Calm - N/A   Overcast
9:53 PM 75.0 °F - 62.1 °F 64% 29.91 in 10.0 mi West 3.5 mph - N/A   Mostly Cloudy
10:53 PM 70.0 °F - 61.0 °F 73% 29.92 in 10.0 mi Calm Calm - N/A   Mostly Cloudy
11:53 PM 66.9 °F - 62.1 °F 84% 29.92 in 10.0 mi WSW 4.6 mph - N/A   Clear